Weather History for Garden City, KS

Change the Weather History Date:

Thursday, November 21, 2013

  Actual Average Record
Temperature  
Mean Temperature 34 °F 39 °F  
Max Temperature 48 °F 53 °F 77 °F (1974)
Min Temperature 19 °F 25 °F 8 °F (1977)
Degree Days  
Heating Degree Days 31 26  
Month to date heating degree days 389 446  
Since 1 July heating degree days 753 836  
Cooling Degree Days 0 0  
Month to date cooling degree days 0 0  
Year to date cooling degree days 1591 1298  
Moisture  
Dew Point 21 °F    
Average Humidity 80    
Maximum Humidity 88    
Minimum Humidity 71    
Precipitation  
Precipitation 0.11 in 0.01 in 0.19 in (1963)
Month to date precipitation 0.96 0.40  
Year to date precipitation 14.82 18.80  
Sea Level Pressure  
Sea Level Pressure 30.28 in    
Wind  
Wind Speed 22 mph (North)    
Max Wind Speed 36 mph    
Max Gust Speed 44 mph    
Visibility 8 miles    
Events Rain , Snow    
T = Trace of Precipitation, MM = Missing Value Source: NWS Daily Summary

Daily Weather History Graph

Daily Weather History Graph

Search for Another Location

Airport:

Trip Planner

Search our weather history database for the weather conditions in past years. The results will help you decide how hot, cold, wet, or windy it might be!

Date:

Astronomy

Nov. 21, 2013 Rise Set
Actual Time 7:30 AM CST 5:27 PM CST
Civil Twilight 7:01 AM CST 5:55 PM CST
Nautical Twilight 6:29 AM CST 6:27 PM CST
Astronomical Twilight 5:58 AM CST 6:59 PM CST
Moon 9:05 PM CST (11/21) 10:38 AM CST (11/21)
Length of Visible Light 10h 54m
Length of Day
9h 57m
Waning Gibbous, 85% of the Moon is Illuminated
Nov 21
Waning Gibbous
Nov 25
Last Quarter
Dec 2
New
Dec 9
First Quarter
Dec 17
Full

Hourly Weather History & Observations

Time (CST) Temp. Windchill Dew Point Humidity Pressure Visibility Wind Dir Wind Speed Gust Speed Precip Events Conditions
12:54 AM 46.0 °F 42.5 °F 39.0 °F 76% 29.83 in 10.0 mi NNE 6.9 mph - N/A   Overcast
1:54 AM 46.9 °F - 39.9 °F 77% 29.84 in 10.0 mi Calm Calm - N/A   Overcast
2:54 AM 46.0 °F 43.1 °F 42.1 °F 86% 29.85 in 10.0 mi ENE 5.8 mph - 0.00 in   Overcast
3:54 AM 46.9 °F - 42.1 °F 83% 29.91 in 8.0 mi NNE 25.3 mph 33.4 mph 0.01 in Rain Light Rain
4:54 AM 37.0 °F 24.5 °F 34.0 °F 89% 29.95 in 4.0 mi NNE 29.9 mph 39.1 mph 0.10 in Snow Light Snow
5:15 AM 35.6 °F 21.9 °F 30.2 °F 81% 29.98 in 5.0 mi NNE 33.4 mph 41.4 mph 0.00 in Snow Light Snow
5:54 AM 32.0 °F 17.0 °F 28.9 °F 88% 30.03 in 8.0 mi NNE 33.4 mph 41.4 mph 0.00 in   Overcast
6:54 AM 30.0 °F 16.3 °F 26.1 °F 85% 30.10 in 10.0 mi NNE 24.2 mph 36.8 mph 0.00 in   Overcast
7:27 AM 28.4 °F 15.1 °F 24.8 °F 86% 30.12 in 10.0 mi NNE 20.7 mph 34.5 mph 0.00 in   Overcast
7:54 AM 28.9 °F 15.1 °F 25.0 °F 85% 30.16 in 10.0 mi NNE 23.0 mph 29.9 mph 0.00 in   Overcast
8:54 AM 26.1 °F 10.1 °F 21.9 °F 84% 30.18 in 6.0 mi North 27.6 mph 39.1 mph N/A   Overcast
9:45 AM 24.8 °F 10.0 °F 21.2 °F 86% 30.18 in 7.0 mi North 21.9 mph 34.5 mph 0.00 in   Light Freezing Drizzle
9:52 AM 24.8 °F 9.6 °F 21.2 °F 86% 30.19 in 7.0 mi North 23.0 mph 32.2 mph 0.00 in Rain Light Freezing Rain
9:54 AM 25.0 °F 9.5 °F 21.9 °F 88% 30.23 in 7.0 mi North 24.2 mph 32.2 mph 0.00 in Rain Light Freezing Rain
10:06 AM 24.8 °F 9.0 °F 21.2 °F 86% 30.20 in 9.0 mi North 25.3 mph 31.1 mph 0.00 in   Overcast
10:54 AM 24.1 °F 8.0 °F 19.0 °F 81% 30.29 in 7.0 mi North 25.3 mph 32.2 mph 0.00 in   Light Freezing Drizzle
11:04 AM 24.8 °F 10.0 °F 19.4 °F 80% 30.24 in 5.0 mi North 21.9 mph 31.1 mph N/A Rain Light Freezing Rain
11:19 AM 24.8 °F 9.6 °F 19.4 °F 80% 30.25 in 8.0 mi North 23.0 mph 29.9 mph N/A   Light Freezing Drizzle
11:35 AM 24.8 °F 9.6 °F 19.4 °F 80% 30.25 in 10.0 mi North 23.0 mph 29.9 mph N/A   Overcast
11:54 AM 23.0 °F 6.6 °F 18.0 °F 81% 30.30 in 10.0 mi North 25.3 mph 34.5 mph N/A   Overcast
12:01 PM 23.0 °F 7.2 °F 17.6 °F 80% 30.25 in 10.0 mi North 23.0 mph 34.5 mph N/A   Overcast
12:54 PM 23.0 °F 9.2 °F 19.0 °F 85% 30.32 in 10.0 mi North 17.3 mph - N/A   Overcast
1:22 PM 23.0 °F 8.0 °F 17.6 °F 80% 30.29 in 3.0 mi North 20.7 mph 32.2 mph N/A Rain Light Freezing Rain
1:29 PM 23.0 °F 6.3 °F 17.6 °F 80% 30.28 in 2.5 mi North 26.5 mph 31.1 mph N/A Snow Light Snow
1:34 PM 21.2 °F 4.5 °F 17.6 °F 86% 30.29 in 3.0 mi North 24.2 mph 31.1 mph N/A   Light Freezing Drizzle
1:42 PM 21.2 °F 4.2 °F 17.6 °F 86% 30.28 in 6.0 mi North 25.3 mph 32.2 mph N/A   Overcast
1:50 PM 23.0 °F 6.6 °F 17.6 °F 80% 30.28 in 10.0 mi North 25.3 mph 32.2 mph N/A   Light Freezing Drizzle
1:54 PM 23.0 °F 6.9 °F 18.0 °F 81% 30.33 in 10.0 mi North 24.2 mph 32.2 mph N/A   Light Freezing Drizzle
2:15 PM 21.2 °F 4.2 °F 17.6 °F 86% 30.27 in 10.0 mi North 25.3 mph 34.5 mph N/A   Overcast
2:54 PM 21.9 °F 6.2 °F 18.0 °F 85% 30.35 in 10.0 mi North 21.9 mph 29.9 mph N/A   Overcast
3:47 PM 21.2 °F 4.2 °F 17.6 °F 86% 30.32 in 4.0 mi North 25.3 mph 34.5 mph N/A   Overcast
3:54 PM 21.9 °F 4.8 °F 17.1 °F 82% 30.38 in 8.0 mi North 26.5 mph 34.5 mph N/A   Overcast
4:54 PM 21.0 °F 4.6 °F 17.1 °F 85% 30.43 in 10.0 mi North 23.0 mph 29.9 mph N/A   Overcast
5:11 PM 21.2 °F 5.2 °F 15.8 °F 80% 30.36 in 10.0 mi North 21.9 mph 34.5 mph N/A   Overcast
5:41 PM 19.4 °F 2.1 °F 15.8 °F 86% 30.37 in 8.0 mi North 24.2 mph 32.2 mph N/A Snow Light Snow
5:54 PM 19.9 °F 2.5 °F 14.0 °F 78% 30.47 in 10.0 mi North 25.3 mph 33.4 mph N/A   Overcast
6:54 PM 19.9 °F 3.2 °F 14.0 °F 78% 30.54 in 10.0 mi North 23.0 mph 28.8 mph N/A   Overcast
7:54 PM 19.9 °F 2.8 °F 12.9 °F 74% 30.55 in 10.0 mi North 24.2 mph 33.4 mph N/A   Overcast
8:02 PM 19.4 °F 3.2 °F 12.2 °F 74% 30.46 in 10.0 mi North 20.7 mph 32.2 mph N/A   Overcast
8:23 PM 19.4 °F 2.8 °F 14.0 °F 80% 30.47 in 8.0 mi North 21.9 mph - N/A Snow Light Snow
8:54 PM 19.0 °F 2.4 °F 12.9 °F 77% 30.58 in 10.0 mi North 21.9 mph 29.9 mph N/A   Overcast
9:54 PM 19.0 °F 1.0 °F 12.9 °F 77% 30.62 in 10.0 mi North 26.5 mph 35.7 mph N/A   Overcast
10:54 PM 19.0 °F 2.7 °F 12.0 °F 74% 30.65 in 9.0 mi North 20.7 mph 33.4 mph N/A   Overcast
11:38 PM 19.4 °F 3.2 °F 12.2 °F 74% 30.55 in 7.0 mi North 20.7 mph - N/A Snow Light Snow
11:54 PM 19.0 °F 1.6 °F 12.0 °F 74% 30.66 in 10.0 mi North 24.2 mph 32.2 mph N/A   Overcast